Time,TemperatureF,DewpointF,PressureIn,WindDirection,WindDirectionDegrees,WindSpeedMPH,WindSpeedGustMPH,Humidity,HourlyPrecipIn,Conditions,Clouds,dailyrainin,SoftwareType,DateUTC
2013-11-16 00:02:00,47.4,40.5,29.97,ENE,68,0.0,0.0,77,0.00,,,0.00,WUHU216HW,2013-11-16 05:02:00,
2013-11-16 00:07:00,47.4,40.9,29.97,East,90,0.0,0.0,78,0.00,,,0.00,WUHU216HW,2013-11-16 05:07:00,
2013-11-16 00:12:00,47.4,40.9,29.98,SSE,158,0.0,0.0,78,0.00,,,0.00,WUHU216HW,2013-11-16 05:12:00,
2013-11-16 00:17:00,47.4,40.9,29.98,SE,135,0.0,0.0,78,0.00,,,0.00,WUHU216HW,2013-11-16 05:17:00,
2013-11-16 00:22:00,47.4,40.9,29.97,ESE,113,0.0,0.0,78,0.00,,,0.00,WUHU216HW,2013-11-16 05:22:00,
2013-11-16 00:27:00,47.4,41.2,29.97,SE,135,0.6,0.6,79,0.00,,,0.00,WUHU216HW,2013-11-16 05:27:00,
2013-11-16 00:32:00,47.4,41.2,29.97,SE,135,0.0,0.6,79,0.00,,,0.00,WUHU216HW,2013-11-16 05:32:00,
2013-11-16 00:37:00,47.4,41.2,29.97,SE,135,0.0,0.0,79,0.00,,,0.00,WUHU216HW,2013-11-16 05:37:00,
2013-11-16 00:42:00,47.6,41.4,29.97,East,90,0.0,0.0,79,0.00,,,0.00,WUHU216HW,2013-11-16 05:42:00,
2013-11-16 00:47:00,47.6,41.4,29.98,SE,135,0.0,0.0,79,0.00,,,0.00,WUHU216HW,2013-11-16 05:47:00,
2013-11-16 00:52:00,47.6,41.4,29.98,SE,135,0.0,0.0,79,0.00,,,0.00,WUHU216HW,2013-11-16 05:52:00,
2013-11-16 00:57:00,47.8,41.5,29.98,East,90,4.0,4.0,79,0.00,,,0.00,WUHU216HW,2013-11-16 05:57:00,
2013-11-16 01:02:00,47.8,41.5,29.97,ESE,113,0.8,4.0,79,0.00,,,0.00,WUHU216HW,2013-11-16 06:02:00,
2013-11-16 01:07:00,47.8,41.5,29.97,ESE,113,0.0,0.8,79,0.00,,,0.00,WUHU216HW,2013-11-16 06:07:00,
2013-11-16 01:12:00,47.8,41.5,29.96,ESE,113,0.0,0.0,79,0.00,,,0.00,WUHU216HW,2013-11-16 06:12:00,
2013-11-16 01:17:00,47.8,41.5,29.96,ESE,113,0.0,0.0,79,0.00,,,0.00,WUHU216HW,2013-11-16 06:17:00,
2013-11-16 01:22:00,47.6,41.4,29.97,ESE,113,0.0,0.0,79,0.00,,,0.00,WUHU216HW,2013-11-16 06:22:00,
2013-11-16 01:27:00,47.6,41.4,29.97,ESE,113,0.0,0.0,79,0.00,,,0.00,WUHU216HW,2013-11-16 06:27:00,
2013-11-16 01:32:00,47.6,41.7,29.97,SE,135,0.0,0.0,80,0.00,,,0.00,WUHU216HW,2013-11-16 06:32:00,
2013-11-16 01:37:00,47.6,41.7,29.97,ESE,113,0.0,0.0,80,0.00,,,0.00,WUHU216HW,2013-11-16 06:37:00,
2013-11-16 01:42:00,47.8,41.9,29.96,ESE,113,0.0,0.0,80,0.00,,,0.00,WUHU216HW,2013-11-16 06:42:00,
2013-11-16 01:47:00,47.8,41.9,29.97,SE,135,0.0,0.0,80,0.00,,,0.00,WUHU216HW,2013-11-16 06:47:00,
2013-11-16 01:52:00,47.8,41.9,29.96,SE,135,0.0,0.0,80,0.00,,,0.00,WUHU216HW,2013-11-16 06:52:00,
2013-11-16 01:57:00,48.0,42.4,29.96,ESE,113,0.0,0.0,81,0.00,,,0.00,WUHU216HW,2013-11-16 06:57:00,
2013-11-16 02:02:00,48.0,42.0,29.96,ESE,113,0.0,0.0,80,0.00,,,0.00,WUHU216HW,2013-11-16 07:02:00,
2013-11-16 02:07:00,48.0,42.4,29.96,ESE,113,0.0,0.0,81,0.00,,,0.00,WUHU216HW,2013-11-16 07:07:00,
2013-11-16 02:12:00,48.0,42.4,29.96,ESE,113,0.0,0.0,81,0.00,,,0.00,WUHU216HW,2013-11-16 07:12:00,
2013-11-16 02:17:00,48.0,42.4,29.96,ESE,113,0.0,0.0,81,0.00,,,0.00,WUHU216HW,2013-11-16 07:17:00,
2013-11-16 02:22:00,48.0,42.4,29.96,ESE,113,0.0,0.0,81,0.00,,,0.00,WUHU216HW,2013-11-16 07:22:00,
2013-11-16 02:27:00,48.0,42.4,29.96,ESE,113,0.0,0.0,81,0.00,,,0.00,WUHU216HW,2013-11-16 07:27:00,
2013-11-16 02:32:00,48.0,42.4,29.96,ESE,113,0.0,0.0,81,0.00,,,0.00,WUHU216HW,2013-11-16 07:32:00,
2013-11-16 02:37:00,48.0,42.4,29.96,ESE,113,0.0,4.0,81,0.00,,,0.00,WUHU216HW,2013-11-16 07:37:00,
2013-11-16 02:42:00,48.2,42.5,29.96,ESE,113,0.0,4.0,81,0.00,,,0.00,WUHU216HW,2013-11-16 07:42:00,
2013-11-16 02:47:00,48.2,42.5,29.96,SE,135,0.0,0.0,81,0.00,,,0.00,WUHU216HW,2013-11-16 07:47:00,
2013-11-16 02:52:00,48.2,42.5,29.96,SE,135,0.0,0.0,81,0.00,,,0.00,WUHU216HW,2013-11-16 07:52:00,
2013-11-16 02:57:00,48.3,42.7,29.96,SSE,158,0.0,0.0,81,0.00,,,0.00,WUHU216HW,2013-11-16 07:57:00,
2013-11-16 03:02:00,48.3,42.7,29.96,SE,135,0.0,0.0,81,0.00,,,0.00,WUHU216HW,2013-11-16 08:02:00,
2013-11-16 03:07:00,48.3,42.7,29.96,SSE,158,0.0,0.0,81,0.00,,,0.00,WUHU216HW,2013-11-16 08:07:00,
2013-11-16 03:12:00,48.3,43.0,29.96,SE,135,0.0,0.0,82,0.00,,,0.00,WUHU216HW,2013-11-16 08:12:00,
2013-11-16 03:17:00,48.3,43.0,29.95,SE,135,0.0,0.0,82,0.00,,,0.00,WUHU216HW,2013-11-16 08:17:00,
2013-11-16 03:22:00,48.3,43.0,29.95,SE,135,0.0,0.0,82,0.00,,,0.00,WUHU216HW,2013-11-16 08:22:00,
2013-11-16 03:27:00,48.3,43.0,29.95,SE,135,0.0,0.0,82,0.00,,,0.00,WUHU216HW,2013-11-16 08:27:00,
2013-11-16 03:32:00,48.3,43.0,29.95,SE,135,0.0,0.0,82,0.00,,,0.00,WUHU216HW,2013-11-16 08:32:00,
2013-11-16 03:38:00,48.3,43.0,29.95,SE,135,0.0,0.0,82,0.00,,,0.00,WUHU216HW,2013-11-16 08:38:00,
2013-11-16 03:43:00,48.5,43.2,29.95,SE,135,0.0,0.0,82,0.00,,,0.00,WUHU216HW,2013-11-16 08:43:00,
2013-11-16 03:48:00,48.5,43.2,29.95,SE,135,0.0,0.6,82,0.00,,,0.00,WUHU216HW,2013-11-16 08:48:00,
2013-11-16 03:53:00,48.5,43.2,29.95,SE,135,0.0,0.6,82,0.00,,,0.00,WUHU216HW,2013-11-16 08:53:00,
2013-11-16 03:58:00,48.5,43.2,29.95,SE,135,0.0,0.0,82,0.00,,,0.00,WUHU216HW,2013-11-16 08:58:00,
2013-11-16 04:03:00,48.7,43.4,29.95,ESE,113,0.0,0.0,82,0.00,,,0.00,WUHU216HW,2013-11-16 09:03:00,
2013-11-16 04:08:00,48.7,43.4,29.96,SSE,158,0.0,0.0,82,0.00,,,0.00,WUHU216HW,2013-11-16 09:08:00,
2013-11-16 04:13:00,48.7,43.4,29.95,SSE,158,0.0,0.0,82,0.00,,,0.00,WUHU216HW,2013-11-16 09:13:00,
2013-11-16 04:18:00,48.7,43.4,29.95,ESE,113,0.0,0.0,82,0.00,,,0.00,WUHU216HW,2013-11-16 09:18:00,
2013-11-16 04:23:00,48.7,43.4,29.95,ESE,113,0.0,0.0,82,0.00,,,0.00,WUHU216HW,2013-11-16 09:23:00,
2013-11-16 04:28:00,48.7,43.7,29.96,ESE,113,0.0,0.0,83,0.00,,,0.00,WUHU216HW,2013-11-16 09:28:00,
2013-11-16 04:33:00,48.7,43.7,29.95,East,90,0.0,0.0,83,0.00,,,0.00,WUHU216HW,2013-11-16 09:33:00,
2013-11-16 04:38:00,48.7,43.7,29.95,ESE,113,0.0,0.0,83,0.00,,,0.00,WUHU216HW,2013-11-16 09:38:00,
2013-11-16 04:43:00,48.7,43.7,29.95,ESE,113,0.0,0.0,83,0.00,,,0.00,WUHU216HW,2013-11-16 09:43:00,
2013-11-16 04:48:00,48.9,43.9,29.95,SE,135,0.0,0.0,83,0.00,,,0.00,WUHU216HW,2013-11-16 09:48:00,
2013-11-16 04:53:00,48.9,43.9,29.96,ESE,113,0.0,1.3,83,0.00,,,0.00,WUHU216HW,2013-11-16 09:53:00,
2013-11-16 04:58:00,48.9,43.9,29.96,South,180,0.0,1.3,83,0.00,,,0.00,WUHU216HW,2013-11-16 09:58:00,
2013-11-16 05:03:00,48.9,43.9,29.96,SE,135,0.0,0.0,83,0.00,,,0.00,WUHU216HW,2013-11-16 10:03:00,
2013-11-16 05:08:00,49.1,44.4,29.96,SE,135,0.0,0.0,84,0.00,,,0.00,WUHU216HW,2013-11-16 10:08:00,
2013-11-16 05:13:00,49.1,44.4,29.96,SE,135,0.0,0.0,84,0.00,,,0.00,WUHU216HW,2013-11-16 10:13:00,
2013-11-16 05:18:00,49.1,44.4,29.96,SE,135,0.0,0.0,84,0.00,,,0.00,WUHU216HW,2013-11-16 10:18:00,
2013-11-16 05:23:00,49.1,44.4,29.96,SE,135,0.0,0.0,84,0.00,,,0.00,WUHU216HW,2013-11-16 10:23:00,
2013-11-16 05:28:00,49.1,44.4,29.96,SE,135,1.1,1.1,84,0.00,,,0.00,WUHU216HW,2013-11-16 10:28:00,
2013-11-16 05:33:00,49.1,44.4,29.95,SE,135,0.0,1.1,84,0.00,,,0.00,WUHU216HW,2013-11-16 10:33:00,
2013-11-16 05:38:00,49.1,44.4,29.96,SE,135,0.0,1.1,84,0.00,,,0.00,WUHU216HW,2013-11-16 10:38:00,
2013-11-16 05:43:00,49.1,44.4,29.96,SSE,158,0.0,0.0,84,0.00,,,0.00,WUHU216HW,2013-11-16 10:43:00,
2013-11-16 05:48:00,49.1,44.4,29.96,ESE,113,0.0,0.0,84,0.00,,,0.00,WUHU216HW,2013-11-16 10:48:00,
2013-11-16 05:53:00,49.1,44.7,29.96,SE,135,0.0,0.0,85,0.00,,,0.00,WUHU216HW,2013-11-16 10:53:00,
2013-11-16 05:58:00,49.1,44.7,29.96,SE,135,0.0,0.6,85,0.00,,,0.00,WUHU216HW,2013-11-16 10:58:00,
2013-11-16 06:03:00,49.1,44.7,29.96,SE,135,0.0,0.6,85,0.00,,,0.00,WUHU216HW,2013-11-16 11:03:00,
2013-11-16 06:08:00,49.1,44.7,29.96,SE,135,0.0,0.0,85,0.00,,,0.00,WUHU216HW,2013-11-16 11:08:00,
2013-11-16 06:13:00,49.1,44.7,29.96,SE,135,0.0,0.0,85,0.00,,,0.00,WUHU216HW,2013-11-16 11:13:00,
2013-11-16 06:18:00,49.1,44.7,29.96,SE,135,0.0,0.0,85,0.00,,,0.00,WUHU216HW,2013-11-16 11:18:00,
2013-11-16 06:23:00,49.1,44.7,29.96,SE,135,0.0,0.0,85,0.00,,,0.00,WUHU216HW,2013-11-16 11:23:00,
2013-11-16 06:28:00,49.1,44.7,29.95,SE,135,0.0,0.0,85,0.00,,,0.00,WUHU216HW,2013-11-16 11:28:00,
2013-11-16 06:33:00,49.1,44.7,29.96,SE,135,0.0,0.0,85,0.00,,,0.00,WUHU216HW,2013-11-16 11:33:00,
2013-11-16 06:38:00,49.1,44.7,29.96,SE,135,0.0,0.0,85,0.00,,,0.00,WUHU216HW,2013-11-16 11:38:00,
2013-11-16 06:43:00,49.1,45.0,29.96,ESE,113,0.0,0.0,86,0.00,,,0.00,WUHU216HW,2013-11-16 11:43:00,
2013-11-16 06:48:00,49.1,45.0,29.96,SE,135,0.0,0.0,86,0.00,,,0.00,WUHU216HW,2013-11-16 11:48:00,
2013-11-16 06:53:00,49.1,45.0,29.97,SE,135,0.0,0.0,86,0.00,,,0.00,WUHU216HW,2013-11-16 11:53:00,
2013-11-16 06:58:00,49.1,45.0,29.97,ESE,113,0.0,0.0,86,0.00,,,0.00,WUHU216HW,2013-11-16 11:58:00,
2013-11-16 07:03:00,49.1,45.0,29.97,East,90,0.0,0.0,86,0.00,,,0.00,WUHU216HW,2013-11-16 12:03:00,
2013-11-16 07:08:00,49.1,45.0,29.96,East,90,0.0,0.0,86,0.00,,,0.00,WUHU216HW,2013-11-16 12:08:00,
2013-11-16 07:13:00,49.1,45.0,29.97,SE,135,0.0,0.0,86,0.00,,,0.00,WUHU216HW,2013-11-16 12:13:00,
2013-11-16 07:18:00,49.1,45.0,29.97,SE,135,0.0,0.0,86,0.00,,,0.00,WUHU216HW,2013-11-16 12:18:00,
2013-11-16 07:23:00,49.1,45.0,29.97,SE,135,0.0,0.0,86,0.00,,,0.00,WUHU216HW,2013-11-16 12:23:00,
2013-11-16 07:28:00,49.2,45.2,29.96,SE,135,0.0,0.0,86,0.00,,,0.00,WUHU216HW,2013-11-16 12:28:00,
2013-11-16 07:33:00,49.2,45.5,29.96,SE,135,0.0,0.0,87,0.00,,,0.00,WUHU216HW,2013-11-16 12:33:00,
2013-11-16 07:38:00,49.2,45.5,29.96,SE,135,0.0,0.0,87,0.00,,,0.00,WUHU216HW,2013-11-16 12:38:00,
2013-11-16 07:43:00,49.2,45.5,29.97,South,180,0.0,5.8,87,0.00,,,0.00,WUHU216HW,2013-11-16 12:43:00,
2013-11-16 07:48:00,49.2,45.5,29.97,SE,135,0.0,5.8,87,0.00,,,0.00,WUHU216HW,2013-11-16 12:48:00,
2013-11-16 07:53:00,49.2,45.5,29.98,ESE,113,0.0,3.8,87,0.00,,,0.00,WUHU216HW,2013-11-16 12:53:00,
2013-11-16 07:58:00,49.4,45.6,29.98,SE,135,0.0,3.8,87,0.00,,,0.00,WUHU216HW,2013-11-16 12:58:00,
2013-11-16 08:03:00,49.2,45.5,29.98,SE,135,0.0,0.0,87,0.00,,,0.00,WUHU216HW,2013-11-16 13:03:00,
2013-11-16 08:08:00,49.6,45.8,29.98,ESE,113,0.0,0.0,87,0.00,,,0.00,WUHU216HW,2013-11-16 13:08:00,
2013-11-16 08:13:00,49.6,45.8,29.98,ESE,113,0.0,0.0,87,0.00,,,0.00,WUHU216HW,2013-11-16 13:13:00,
2013-11-16 08:18:00,49.6,45.8,29.97,SSE,158,0.0,0.0,87,0.00,,,0.00,WUHU216HW,2013-11-16 13:18:00,
2013-11-16 08:23:00,49.6,45.8,29.97,ESE,113,0.0,0.0,87,0.00,,,0.00,WUHU216HW,2013-11-16 13:23:00,
2013-11-16 08:28:00,49.6,45.8,29.97,SE,135,0.0,0.0,87,0.00,,,0.00,WUHU216HW,2013-11-16 13:28:00,
2013-11-16 08:33:00,49.6,45.8,29.97,SE,135,0.0,0.0,87,0.00,,,0.00,WUHU216HW,2013-11-16 13:33:00,
2013-11-16 08:38:00,49.6,45.8,29.98,SSE,158,0.0,0.0,87,0.00,,,0.00,WUHU216HW,2013-11-16 13:38:00,
2013-11-16 08:43:00,49.8,46.3,29.97,SE,135,0.0,0.0,88,0.00,,,0.00,WUHU216HW,2013-11-16 13:43:00,
2013-11-16 08:48:00,49.6,45.8,29.98,SE,135,0.0,0.0,87,0.00,,,0.00,WUHU216HW,2013-11-16 13:48:00,
2013-11-16 08:53:00,49.8,46.3,29.98,SE,135,0.0,0.0,88,0.00,,,0.00,WUHU216HW,2013-11-16 13:53:00,
2013-11-16 08:58:00,49.8,46.3,29.98,SE,135,0.0,0.0,88,0.00,,,0.00,WUHU216HW,2013-11-16 13:58:00,
2013-11-16 09:03:00,49.8,46.3,29.98,SE,135,6.2,6.2,88,0.00,,,0.00,WUHU216HW,2013-11-16 14:03:00,
2013-11-16 09:08:00,49.8,46.3,29.98,SE,135,9.1,9.1,88,0.00,,,0.00,WUHU216HW,2013-11-16 14:08:00,
2013-11-16 09:13:00,50.0,46.5,29.98,ESE,113,0.0,9.1,88,0.00,,,0.00,WUHU216HW,2013-11-16 14:13:00,
2013-11-16 09:18:00,50.0,46.5,29.97,ESE,113,0.0,1.5,88,0.00,,,0.00,WUHU216HW,2013-11-16 14:18:00,
2013-11-16 09:23:00,50.1,46.6,29.98,ESE,113,0.0,0.0,88,0.00,,,0.00,WUHU216HW,2013-11-16 14:23:00,
2013-11-16 09:28:00,50.1,46.6,29.98,SE,135,0.0,3.5,88,0.00,,,0.00,WUHU216HW,2013-11-16 14:28:00,
2013-11-16 09:33:00,50.1,46.6,29.97,SE,135,0.0,4.9,88,0.00,,,0.00,WUHU216HW,2013-11-16 14:33:00,
2013-11-16 09:38:00,50.3,46.8,29.97,SE,135,1.1,4.9,88,0.00,,,0.00,WUHU216HW,2013-11-16 14:38:00,
2013-11-16 09:43:00,50.1,46.8,29.96,ENE,68,1.7,3.5,88,0.00,,,0.00,WUHU216HW,2013-11-16 14:43:00,
2013-11-16 09:48:00,50.3,46.8,29.98,SE,135,4.6,4.6,88,0.00,,,0.00,WUHU216HW,2013-11-16 14:48:00,
2013-11-16 09:53:00,50.5,47.0,29.96,SE,135,0.0,4.6,88,0.00,,,0.00,WUHU216HW,2013-11-16 14:53:00,
2013-11-16 09:58:00,50.5,47.2,29.96,ESE,113,3.8,4.6,88,0.00,,,0.00,WUHU216HW,2013-11-16 14:58:00,
2013-11-16 10:03:00,50.7,47.2,29.96,SE,135,5.1,5.1,88,0.00,,,0.00,WUHU216HW,2013-11-16 15:03:00,
2013-11-16 10:08:00,50.7,47.2,29.96,SSE,158,0.8,5.1,88,0.00,,,0.00,WUHU216HW,2013-11-16 15:08:00,
2013-11-16 10:13:00,50.9,47.4,29.96,SE,135,0.0,5.1,88,0.00,,,0.00,WUHU216HW,2013-11-16 15:13:00,
2013-11-16 10:18:00,51.0,47.5,29.96,SE,135,5.5,7.1,88,0.00,,,0.00,WUHU216HW,2013-11-16 15:18:00,
2013-11-16 10:23:00,51.0,47.5,29.96,SSE,158,2.0,7.1,88,0.00,,,0.00,WUHU216HW,2013-11-16 15:23:00,
2013-11-16 10:28:00,51.2,47.7,29.96,SE,135,1.1,5.5,88,0.00,,,0.00,WUHU216HW,2013-11-16 15:28:00,
2013-11-16 10:33:00,51.4,47.9,29.96,SE,135,0.0,2.9,88,0.00,,,0.00,WUHU216HW,2013-11-16 15:33:00,
2013-11-16 10:38:00,51.4,47.9,29.95,SE,135,0.0,2.4,88,0.00,,,0.00,WUHU216HW,2013-11-16 15:38:00,
2013-11-16 10:43:00,51.6,48.1,29.95,SE,135,2.9,2.9,88,0.00,,,0.00,WUHU216HW,2013-11-16 15:43:00,
2013-11-16 10:48:00,51.6,47.8,29.95,SSE,158,1.5,2.9,87,0.00,,,0.00,WUHU216HW,2013-11-16 15:48:00,
2013-11-16 10:53:00,51.9,48.1,29.95,SE,135,6.0,6.0,87,0.00,,,0.00,WUHU216HW,2013-11-16 15:53:00,
2013-11-16 10:58:00,52.1,48.3,29.95,SE,135,4.6,6.2,87,0.00,,,0.00,WUHU216HW,2013-11-16 15:58:00,
2013-11-16 11:03:00,52.3,48.5,29.95,SE,135,5.8,8.0,87,0.00,,,0.00,WUHU216HW,2013-11-16 16:03:00,
2013-11-16 11:08:00,52.3,48.5,29.94,South,180,8.5,8.5,87,0.00,,,0.00,WUHU216HW,2013-11-16 16:08:00,
2013-11-16 11:13:00,52.5,48.7,29.94,SSE,158,0.0,8.5,87,0.00,,,0.00,WUHU216HW,2013-11-16 16:13:00,
2013-11-16 11:18:00,52.5,48.7,29.94,SE,135,0.0,4.6,87,0.00,,,0.00,WUHU216HW,2013-11-16 16:18:00,
2013-11-16 11:23:00,52.7,48.9,29.94,SE,135,4.2,4.2,87,0.00,,,0.00,WUHU216HW,2013-11-16 16:23:00,
2013-11-16 11:28:00,52.8,49.0,29.94,SSE,158,0.0,4.2,87,0.00,,,0.00,WUHU216HW,2013-11-16 16:28:00,
2013-11-16 11:33:00,53.2,49.1,29.94,ESE,113,6.4,8.7,86,0.00,,,0.00,WUHU216HW,2013-11-16 16:33:00,
2013-11-16 11:38:00,53.4,49.6,29.94,SE,135,6.2,8.7,87,0.00,,,0.00,WUHU216HW,2013-11-16 16:38:00,
2013-11-16 11:43:00,53.9,50.1,29.94,SSE,158,5.5,6.4,87,0.00,,,0.00,WUHU216HW,2013-11-16 16:43:00,
2013-11-16 11:48:00,54.3,50.1,29.93,SSE,158,5.8,5.8,86,0.00,,,0.00,WUHU216HW,2013-11-16 16:48:00,
2013-11-16 11:53:00,54.5,50.3,29.93,SE,135,5.3,5.8,86,0.00,,,0.00,WUHU216HW,2013-11-16 16:53:00,
2013-11-16 11:58:00,55.0,50.8,29.93,SE,135,3.8,5.8,86,0.00,,,0.00,WUHU216HW,2013-11-16 16:58:00,
2013-11-16 12:03:00,55.2,50.7,29.93,SE,135,2.6,6.2,85,0.00,,,0.00,WUHU216HW,2013-11-16 17:03:00,
2013-11-16 12:08:00,55.2,50.7,29.92,SSE,158,0.0,7.8,85,0.00,,,0.00,WUHU216HW,2013-11-16 17:08:00,
2013-11-16 12:13:00,55.5,51.0,29.92,SSE,158,0.0,14.5,85,0.00,,,0.00,WUHU216HW,2013-11-16 17:13:00,
2013-11-16 12:18:00,55.5,51.0,29.92,SSE,158,5.8,14.5,85,0.00,,,0.00,WUHU216HW,2013-11-16 17:18:00,
2013-11-16 12:23:00,55.7,50.9,29.91,SSE,158,0.0,5.8,84,0.00,,,0.00,WUHU216HW,2013-11-16 17:23:00,
2013-11-16 12:28:00,55.9,51.1,29.91,SE,135,5.8,6.4,84,0.00,,,0.00,WUHU216HW,2013-11-16 17:28:00,
2013-11-16 12:33:00,56.1,51.2,29.90,ENE,68,4.6,6.4,84,0.00,,,0.00,WUHU216HW,2013-11-16 17:33:00,
2013-11-16 12:38:00,56.3,51.4,29.91,SE,135,7.3,7.3,84,0.00,,,0.00,WUHU216HW,2013-11-16 17:38:00,
2013-11-16 12:43:00,56.3,51.1,29.90,ESE,113,0.0,7.3,83,0.00,,,0.00,WUHU216HW,2013-11-16 17:43:00,
2013-11-16 12:48:00,56.4,51.3,29.90,East,90,3.8,6.4,83,0.00,,,0.00,WUHU216HW,2013-11-16 17:48:00,
2013-11-16 12:53:00,56.8,51.6,29.90,SE,135,4.0,4.2,83,0.00,,,0.00,WUHU216HW,2013-11-16 17:53:00,
2013-11-16 12:58:00,57.0,51.5,29.89,SE,135,8.2,8.2,82,0.00,,,0.00,WUHU216HW,2013-11-16 17:58:00,
2013-11-16 13:03:00,57.3,51.9,29.89,SE,135,0.0,8.2,82,0.00,,,0.00,WUHU216HW,2013-11-16 18:03:00,
2013-11-16 13:08:00,57.5,52.0,29.88,ESE,113,0.0,8.2,82,0.00,,,0.00,WUHU216HW,2013-11-16 18:08:00,
2013-11-16 13:13:00,57.7,51.9,29.88,SE,135,8.9,8.9,81,0.00,,,0.00,WUHU216HW,2013-11-16 18:13:00,
2013-11-16 13:18:00,57.9,52.1,29.88,SE,135,3.5,8.9,81,0.00,,,0.00,WUHU216HW,2013-11-16 18:18:00,
2013-11-16 13:23:00,57.9,52.1,29.88,SE,135,2.9,8.9,81,0.00,,,0.00,WUHU216HW,2013-11-16 18:23:00,
2013-11-16 13:28:00,57.9,52.1,29.88,SE,135,0.0,5.5,81,0.00,,,0.00,WUHU216HW,2013-11-16 18:28:00,
2013-11-16 13:33:00,57.9,52.1,29.87,SE,135,2.4,6.2,81,0.00,,,0.00,WUHU216HW,2013-11-16 18:33:00,
2013-11-16 13:38:00,57.9,52.1,29.87,ESE,113,4.4,6.2,81,0.00,,,0.00,WUHU216HW,2013-11-16 18:38:00,
2013-11-16 13:43:00,58.1,51.9,29.86,SE,135,4.4,4.4,80,0.00,,,0.00,WUHU216HW,2013-11-16 18:43:00,
2013-11-16 13:48:00,58.1,51.9,29.86,SE,135,0.0,4.4,80,0.00,,,0.00,WUHU216HW,2013-11-16 18:48:00,
2013-11-16 13:53:00,58.2,52.1,29.86,SE,135,3.5,3.5,80,0.00,,,0.00,WUHU216HW,2013-11-16 18:53:00,
2013-11-16 13:58:00,58.4,52.3,29.86,ENE,68,2.2,4.6,80,0.00,,,0.00,WUHU216HW,2013-11-16 18:58:00,
2013-11-16 14:03:00,58.6,52.5,29.86,SE,135,9.8,9.8,80,0.00,,,0.00,WUHU216HW,2013-11-16 19:03:00,
2013-11-16 14:08:00,58.8,52.7,29.86,SSE,158,3.1,9.8,80,0.00,,,0.00,WUHU216HW,2013-11-16 19:08:00,
2013-11-16 14:13:00,59.3,53.2,29.86,SSW,203,3.8,10.2,80,0.00,,,0.00,WUHU216HW,2013-11-16 19:13:00,
2013-11-16 14:18:00,59.7,53.2,29.86,SE,135,2.9,10.2,79,0.00,,,0.00,WUHU216HW,2013-11-16 19:18:00,
2013-11-16 14:23:00,60.0,53.2,29.86,ESE,113,6.9,6.9,78,0.00,,,0.00,WUHU216HW,2013-11-16 19:23:00,
2013-11-16 14:28:00,60.4,53.6,29.85,SE,135,8.0,8.0,78,0.00,,,0.00,WUHU216HW,2013-11-16 19:28:00,
2013-11-16 14:33:00,60.4,53.6,29.85,SSE,158,2.4,8.0,78,0.00,,,0.00,WUHU216HW,2013-11-16 19:33:00,
2013-11-16 14:38:00,60.6,53.4,29.85,SE,135,6.4,6.4,77,0.00,,,0.00,WUHU216HW,2013-11-16 19:38:00,
2013-11-16 14:43:00,60.4,53.2,29.85,SE,135,0.0,6.4,77,0.00,,,0.00,WUHU216HW,2013-11-16 19:43:00,
2013-11-16 14:49:00,60.4,53.2,29.85,SSE,158,4.4,6.4,77,0.00,,,0.00,WUHU216HW,2013-11-16 19:49:00,
2013-11-16 14:54:00,60.8,53.6,29.85,SE,135,4.0,6.2,77,0.00,,,0.00,WUHU216HW,2013-11-16 19:54:00,
2013-11-16 14:59:00,60.9,53.7,29.84,SE,135,10.7,10.7,77,0.00,,,0.00,WUHU216HW,2013-11-16 19:59:00,
2013-11-16 15:04:00,61.1,53.5,29.84,ESE,113,3.8,10.7,76,0.00,,,0.00,WUHU216HW,2013-11-16 20:04:00,
2013-11-16 15:09:00,60.9,53.4,29.84,SW,225,0.0,5.8,76,0.00,,,0.00,WUHU216HW,2013-11-16 20:09:00,
2013-11-16 15:14:00,60.9,53.4,29.84,SSE,158,9.8,9.8,76,0.00,,,0.00,WUHU216HW,2013-11-16 20:14:00,
2013-11-16 15:19:00,61.1,53.5,29.84,SE,135,3.3,9.8,76,0.00,,,0.00,WUHU216HW,2013-11-16 20:19:00,
2013-11-16 15:24:00,61.1,53.5,29.84,SE,135,2.9,3.3,76,0.00,,,0.00,WUHU216HW,2013-11-16 20:24:00,
2013-11-16 15:29:00,61.3,53.7,29.83,SE,135,5.8,5.8,76,0.00,,,0.00,WUHU216HW,2013-11-16 20:29:00,
2013-11-16 15:34:00,61.5,53.8,29.83,SSE,158,0.0,5.8,76,0.00,,,0.00,WUHU216HW,2013-11-16 20:34:00,
2013-11-16 15:39:00,61.5,53.5,29.83,ESE,113,0.0,3.8,75,0.00,,,0.00,WUHU216HW,2013-11-16 20:39:00,
2013-11-16 15:44:00,61.5,53.5,29.83,SE,135,5.3,10.9,75,0.00,,,0.00,WUHU216HW,2013-11-16 20:44:00,
2013-11-16 15:49:00,61.3,53.3,29.83,SE,135,17.0,17.0,75,0.00,,,0.00,WUHU216HW,2013-11-16 20:49:00,
2013-11-16 15:54:00,60.9,53.0,29.83,North,0,0.8,17.0,75,0.00,,,0.00,WUHU216HW,2013-11-16 20:54:00,
2013-11-16 15:59:00,60.6,53.0,29.83,ESE,113,0.0,6.7,76,0.00,,,0.00,WUHU216HW,2013-11-16 20:59:00,
2013-11-16 16:04:00,60.6,53.0,29.83,ESE,113,5.3,5.3,76,0.00,,,0.00,WUHU216HW,2013-11-16 21:04:00,
2013-11-16 16:09:00,60.4,52.8,29.83,ESE,113,5.3,6.0,76,0.00,,,0.00,WUHU216HW,2013-11-16 21:09:00,
2013-11-16 16:14:00,60.4,52.8,29.83,SE,135,0.0,6.0,76,0.00,,,0.00,WUHU216HW,2013-11-16 21:14:00,
2013-11-16 16:19:00,60.0,52.8,29.83,SE,135,2.0,5.5,76,0.00,,,0.00,WUHU216HW,2013-11-16 21:19:00,
2013-11-16 16:24:00,59.9,52.7,29.83,South,180,0.0,11.8,77,0.00,,,0.00,WUHU216HW,2013-11-16 21:24:00,
2013-11-16 16:29:00,59.9,52.7,29.83,North,0,3.3,11.8,77,0.00,,,0.00,WUHU216HW,2013-11-16 21:29:00,
2013-11-16 16:34:00,59.7,52.8,29.83,East,90,2.9,3.3,78,0.00,,,0.00,WUHU216HW,2013-11-16 21:34:00,
2013-11-16 16:39:00,59.5,52.7,29.83,ESE,113,5.3,5.3,78,0.00,,,0.00,WUHU216HW,2013-11-16 21:39:00,
2013-11-16 16:44:00,59.5,52.7,29.83,SSE,158,6.7,7.3,78,0.00,,,0.00,WUHU216HW,2013-11-16 21:44:00,
2013-11-16 16:49:00,59.5,52.7,29.83,SE,135,5.5,7.3,78,0.00,,,0.00,WUHU216HW,2013-11-16 21:49:00,
2013-11-16 16:54:00,59.5,53.0,29.83,ESE,113,7.6,7.6,79,0.00,,,0.00,WUHU216HW,2013-11-16 21:54:00,
2013-11-16 16:59:00,59.3,52.8,29.83,SE,135,4.9,7.6,79,0.00,,,0.00,WUHU216HW,2013-11-16 21:59:00,
2013-11-16 17:04:00,59.3,53.2,29.83,ESE,113,0.0,7.6,80,0.00,,,0.00,WUHU216HW,2013-11-16 22:04:00,
2013-11-16 17:09:00,59.3,53.2,29.82,SSE,158,0.0,3.8,80,0.00,,,0.00,WUHU216HW,2013-11-16 22:09:00,
2013-11-16 17:14:00,59.3,53.2,29.82,East,90,0.0,0.6,80,0.00,,,0.00,WUHU216HW,2013-11-16 22:14:00,
2013-11-16 17:19:00,59.1,53.0,29.82,SSE,158,2.6,2.6,80,0.00,,,0.00,WUHU216HW,2013-11-16 22:19:00,
2013-11-16 17:24:00,59.0,52.8,29.82,SSE,158,2.0,2.6,80,0.00,,,0.00,WUHU216HW,2013-11-16 22:24:00,
2013-11-16 17:29:00,58.8,52.7,29.82,SE,135,4.6,4.6,80,0.00,,,0.00,WUHU216HW,2013-11-16 22:29:00,
2013-11-16 17:34:00,58.8,52.7,29.82,SE,135,0.0,4.6,80,0.00,,,0.00,WUHU216HW,2013-11-16 22:34:00,
2013-11-16 17:39:00,58.8,53.0,29.82,SE,135,0.0,4.2,81,0.00,,,0.00,WUHU216HW,2013-11-16 22:39:00,
2013-11-16 17:44:00,58.8,53.0,29.81,SE,135,4.4,4.4,81,0.00,,,0.00,WUHU216HW,2013-11-16 22:44:00,
2013-11-16 17:49:00,58.8,53.0,29.81,SE,135,4.4,7.6,81,0.00,,,0.00,WUHU216HW,2013-11-16 22:49:00,
2013-11-16 17:54:00,58.8,53.3,29.80,ENE,68,4.6,7.6,82,0.00,,,0.00,WUHU216HW,2013-11-16 22:54:00,
2013-11-16 17:59:00,58.8,53.3,29.80,ESE,113,0.0,4.6,82,0.00,,,0.00,WUHU216HW,2013-11-16 22:59:00,
2013-11-16 18:04:00,58.8,53.3,29.80,SSE,158,0.0,4.6,82,0.00,,,0.00,WUHU216HW,2013-11-16 23:04:00,
2013-11-16 18:09:00,58.8,53.3,29.80,SE,135,0.0,0.0,82,0.00,,,0.00,WUHU216HW,2013-11-16 23:09:00,
2013-11-16 18:14:00,58.8,53.3,29.80,SSE,158,6.4,6.4,82,0.00,,,0.00,WUHU216HW,2013-11-16 23:14:00,
2013-11-16 18:19:00,58.8,53.3,29.80,ESE,113,2.9,6.4,82,0.00,,,0.00,WUHU216HW,2013-11-16 23:19:00,
2013-11-16 18:24:00,58.8,53.3,29.82,SSW,203,0.0,4.4,82,0.00,,,0.00,WUHU216HW,2013-11-16 23:24:00,
2013-11-16 18:29:00,58.8,53.6,29.82,SE,135,4.6,4.6,83,0.00,,,0.00,WUHU216HW,2013-11-16 23:29:00,
2013-11-16 18:34:00,58.8,53.6,29.81,SE,135,5.5,5.5,83,0.00,,,0.00,WUHU216HW,2013-11-16 23:34:00,
2013-11-16 18:39:00,58.8,53.6,29.79,SE,135,0.0,5.5,83,0.00,,,0.00,WUHU216HW,2013-11-16 23:39:00,
2013-11-16 18:44:00,58.8,53.6,29.80,SE,135,6.2,6.2,83,0.00,,,0.00,WUHU216HW,2013-11-16 23:44:00,
2013-11-16 18:49:00,59.0,53.8,29.81,ESE,113,2.9,6.2,83,0.00,,,0.00,WUHU216HW,2013-11-16 23:49:00,
2013-11-16 18:54:00,59.1,54.0,29.80,SE,135,1.3,4.0,83,0.00,,,0.00,WUHU216HW,2013-11-16 23:54:00,
2013-11-16 18:59:00,59.1,54.3,29.80,WSW,248,0.0,2.9,84,0.00,,,0.00,WUHU216HW,2013-11-16 23:59:00,
2013-11-16 19:04:00,59.3,54.5,29.80,East,90,4.9,5.1,84,0.00,,,0.00,WUHU216HW,2013-11-17 00:04:00,
2013-11-16 19:09:00,59.5,54.7,29.80,SE,135,9.1,9.1,84,0.00,,,0.00,WUHU216HW,2013-11-17 00:09:00,
2013-11-16 19:14:00,59.5,54.7,29.79,SE,135,2.4,9.1,84,0.00,,,0.00,WUHU216HW,2013-11-17 00:14:00,
2013-11-16 19:19:00,59.5,54.7,29.79,South,180,5.5,9.1,84,0.00,,,0.00,WUHU216HW,2013-11-17 00:19:00,
2013-11-16 19:24:00,59.5,54.7,29.79,ESE,113,0.0,9.1,84,0.00,,,0.00,WUHU216HW,2013-11-17 00:24:00,
2013-11-16 19:29:00,59.5,54.7,29.77,SE,135,4.6,5.5,84,0.00,,,0.00,WUHU216HW,2013-11-17 00:29:00,
2013-11-16 19:34:00,59.5,54.7,29.78,SE,135,6.9,6.9,84,0.00,,,0.00,WUHU216HW,2013-11-17 00:34:00,
2013-11-16 19:39:00,59.7,54.8,29.78,ESE,113,0.0,6.9,84,0.00,,,0.00,WUHU216HW,2013-11-17 00:39:00,
2013-11-16 19:44:00,59.7,54.8,29.78,SE,135,3.1,6.9,84,0.00,,,0.00,WUHU216HW,2013-11-17 00:44:00,
2013-11-16 19:49:00,59.7,54.8,29.78,SE,135,2.6,3.1,84,0.00,,,0.00,WUHU216HW,2013-11-17 00:49:00,
2013-11-16 19:54:00,59.7,54.8,29.78,South,180,0.0,2.6,84,0.00,,,0.00,WUHU216HW,2013-11-17 00:54:00,
2013-11-16 19:59:00,59.9,55.0,29.77,South,180,2.9,5.3,84,0.00,,,0.00,WUHU216HW,2013-11-17 00:59:00,
2013-11-16 20:04:00,59.9,55.0,29.78,ESE,113,2.4,5.3,84,0.00,,,0.00,WUHU216HW,2013-11-17 01:04:00,
2013-11-16 20:09:00,60.0,55.2,29.78,SE,135,3.5,6.9,84,0.00,,,0.00,WUHU216HW,2013-11-17 01:09:00,
2013-11-16 20:14:00,60.0,55.5,29.78,South,180,0.6,6.9,85,0.00,,,0.00,WUHU216HW,2013-11-17 01:14:00,
2013-11-16 20:19:00,60.0,55.5,29.77,SE,135,6.0,6.0,85,0.00,,,0.00,WUHU216HW,2013-11-17 01:19:00,
2013-11-16 20:24:00,60.0,55.5,29.77,ENE,68,4.4,6.0,85,0.00,,,0.00,WUHU216HW,2013-11-17 01:24:00,
2013-11-16 20:29:00,60.0,55.5,29.77,ENE,68,2.9,6.0,85,0.00,,,0.00,WUHU216HW,2013-11-17 01:29:00,
2013-11-16 20:34:00,59.9,55.4,29.77,ESE,113,2.4,4.4,85,0.00,,,0.00,WUHU216HW,2013-11-17 01:34:00,
2013-11-16 20:39:00,59.9,55.7,29.77,SE,135,5.8,5.8,86,0.00,,,0.00,WUHU216HW,2013-11-17 01:39:00,
2013-11-16 20:44:00,59.9,55.7,29.77,SSE,158,7.1,7.1,86,0.00,,,0.00,WUHU216HW,2013-11-17 01:44:00,
2013-11-16 20:49:00,60.0,55.7,29.77,North,0,0.0,8.9,86,0.00,,,0.00,WUHU216HW,2013-11-17 01:49:00,
2013-11-16 20:54:00,59.9,55.7,29.77,SSE,158,3.8,8.9,86,0.00,,,0.00,WUHU216HW,2013-11-17 01:54:00,
2013-11-16 20:59:00,60.0,55.9,29.76,SE,135,5.8,8.2,86,0.00,,,0.00,WUHU216HW,2013-11-17 01:59:00,
2013-11-16 21:04:00,60.0,55.9,29.76,SE,135,0.0,5.8,86,0.00,,,0.00,WUHU216HW,2013-11-17 02:04:00,
2013-11-16 21:09:00,60.0,55.9,29.76,SSE,158,3.8,5.1,86,0.00,,,0.00,WUHU216HW,2013-11-17 02:09:00,
2013-11-16 21:14:00,60.0,55.9,29.76,ESE,113,2.0,8.7,86,0.00,,,0.00,WUHU216HW,2013-11-17 02:14:00,
2013-11-16 21:19:00,60.0,56.2,29.77,SSE,158,4.6,8.7,86,0.00,,,0.00,WUHU216HW,2013-11-17 02:19:00,
2013-11-16 21:24:00,60.0,56.2,29.77,SE,135,0.0,7.1,87,0.00,,,0.00,WUHU216HW,2013-11-17 02:24:00,
2013-11-16 21:29:00,60.0,56.2,29.78,SE,135,2.2,4.6,87,0.00,,,0.00,WUHU216HW,2013-11-17 02:29:00,
2013-11-16 21:34:00,60.2,56.4,29.78,SE,135,0.8,3.3,87,0.00,,,0.00,WUHU216HW,2013-11-17 02:34:00,
2013-11-16 21:39:00,60.4,56.5,29.78,ESE,113,0.0,3.3,87,0.00,,,0.00,WUHU216HW,2013-11-17 02:39:00,
2013-11-16 21:44:00,60.4,56.5,29.79,ESE,113,0.0,1.7,87,0.00,,,0.00,WUHU216HW,2013-11-17 02:44:00,
2013-11-16 21:49:00,60.4,56.5,29.79,SE,135,0.0,1.7,87,0.00,,,0.00,WUHU216HW,2013-11-17 02:49:00,
2013-11-16 21:54:00,60.4,56.5,29.79,SE,135,0.0,1.7,87,0.00,,,0.00,WUHU216HW,2013-11-17 02:54:00,
2013-11-16 21:59:00,60.6,56.7,29.79,SE,135,0.0,3.5,87,0.00,,,0.00,WUHU216HW,2013-11-17 02:59:00,
2013-11-16 22:04:00,60.4,56.5,29.79,ENE,68,3.3,3.5,87,0.00,,,0.00,WUHU216HW,2013-11-17 03:04:00,
2013-11-16 22:09:00,60.4,56.5,29.79,East,90,3.3,3.3,87,0.00,,,0.00,WUHU216HW,2013-11-17 03:09:00,
2013-11-16 22:14:00,60.4,56.5,29.79,East,90,0.0,3.3,87,0.00,,,0.00,WUHU216HW,2013-11-17 03:14:00,
2013-11-16 22:19:00,60.4,56.5,29.79,SE,135,4.9,4.9,87,0.00,,,0.00,WUHU216HW,2013-11-17 03:19:00,
2013-11-16 22:24:00,60.4,56.5,29.79,SE,135,0.0,4.9,87,0.00,,,0.00,WUHU216HW,2013-11-17 03:24:00,
2013-11-16 22:29:00,60.4,56.5,29.78,ENE,68,4.2,4.9,87,0.02,,,0.03,WUHU216HW,2013-11-17 03:29:00,
2013-11-16 22:34:00,60.2,56.4,29.78,ESE,113,0.0,4.2,87,0.02,,,0.03,WUHU216HW,2013-11-17 03:34:00,
2013-11-16 22:39:00,60.0,56.2,29.78,East,90,0.0,0.0,87,0.02,,,0.03,WUHU216HW,2013-11-17 03:39:00,
2013-11-16 22:44:00,60.0,56.2,29.78,East,90,0.0,0.0,87,0.02,,,0.03,WUHU216HW,2013-11-17 03:44:00,
2013-11-16 22:49:00,60.0,56.2,29.77,ESE,113,0.0,0.0,87,0.02,,,0.03,WUHU216HW,2013-11-17 03:49:00,
2013-11-16 22:54:00,60.0,56.2,29.77,ESE,113,0.0,1.1,87,0.02,,,0.03,WUHU216HW,2013-11-17 03:54:00,
2013-11-16 22:59:00,60.0,56.2,29.77,ESE,113,0.0,1.1,87,0.02,,,0.03,WUHU216HW,2013-11-17 03:59:00,
2013-11-16 23:04:00,60.0,56.2,29.77,ESE,113,0.0,0.0,87,0.02,,,0.03,WUHU216HW,2013-11-17 04:04:00,
2013-11-16 23:09:00,59.9,56.0,29.76,ENE,68,0.0,0.0,87,0.02,,,0.03,WUHU216HW,2013-11-17 04:09:00,
2013-11-16 23:14:00,59.7,55.8,29.76,ENE,68,0.0,0.0,87,0.02,,,0.03,WUHU216HW,2013-11-17 04:14:00,
2013-11-16 23:19:00,59.5,56.0,29.75,East,90,2.4,2.4,88,0.02,,,0.03,WUHU216HW,2013-11-17 04:19:00,
2013-11-16 23:25:00,59.5,56.0,29.75,East,90,0.0,2.4,88,0.02,,,0.03,WUHU216HW,2013-11-17 04:25:00,
2013-11-16 23:30:00,59.5,56.0,29.75,ENE,68,0.0,0.0,88,0.02,,,0.05,WUHU216HW,2013-11-17 04:30:00,
2013-11-16 23:35:00,59.5,56.0,29.74,ENE,68,0.0,0.0,88,0.02,,,0.05,WUHU216HW,2013-11-17 04:35:00,
2013-11-16 23:40:00,59.5,56.0,29.73,East,90,0.0,1.3,88,0.02,,,0.05,WUHU216HW,2013-11-17 04:40:00,
2013-11-16 23:45:00,59.5,56.0,29.73,ESE,113,0.0,1.3,88,0.02,,,0.05,WUHU216HW,2013-11-17 04:45:00,
2013-11-16 23:50:00,59.5,56.0,29.73,ENE,68,0.0,0.0,88,0.02,,,0.05,WUHU216HW,2013-11-17 04:50:00,
2013-11-16 23:55:00,59.7,56.1,29.73,ESE,113,0.0,0.0,88,0.02,,,0.05,WUHU216HW,2013-11-17 04:55:00,